View from above orbital plane
|
View from above satellite
|
Ground track
|
The orbit data is extracted from the following two-line orbital elements,
1 00050U 60009B 21102.50246959 -.00000093 00000-0 -63430-4 0 9990
2 00050 47.2301 273.1226 0113957 136.9062 224.0716 12.20116808706734
Epoch (UTC): | 12 April 2021 12:03:33 |
Eccentricity: | 0.0113957 |
inclination: | 47.2301° |
perigee height: | 1501 km |
apogee height: | 1683 km |
right ascension of ascending node: | 273.1226° |
argument of perigee: | 136.9062° |
revolutions per day: | 12.20116808 |
mean anomaly at epoch: | 224.0716° |
orbit number at epoch: | 70673 |
The dashed part of the orbit path shows where the satellite is in the earth's shadow,
|
|